Dewpoint
27 27 26 26 26 26 24 23 20 15 13 13 14 14 15 15 17 16 16 16 17 16 16 16 18 19 19 16 14 12 11 9 10 8 8 9 7 7 7 8 9 9
28 28 28 27 27 26 25 24 22 19 16 13 13 14 14 16 16 16 16 16 17 17 16 17 20 19 17 15 14 11 11 9 7 10 7 9 7 8 7 8 8 8
29 28 27 26 26 26 25 24 23 21 20 17 13 13 15 17 16 16 15 15 16 16 17 19 19 18 17 15 14 11 10 9 6 8 9 7 7 7 7 8 8 9
29 28 27 27 26 26 25 24 23 21 19 18 16 15 15 17 16 15 15 18 16 17 19 19 19 18 17 15 14 12 11 9 7 8 9 8 8 8 7 8 10 9
28 28 27 27 26 26 25 24 23 20 18 17 16 15 16 16 15 15 15 16 17 18 21 20 19 18 18 16 15 13 11 9 7 7 8 8 8 9 8 9 9 9
29 28 27 26 26 25 24 23 22 21 19 16 15 15 14 15 15 15 16 16 18 20 20 19 18 18 17 17 14 12 11 9 8 8 8 7 9 9 9 9 9 9
29 28 27 26 25 24 23 22 22 22 19 17 16 14 14 14 15 15 16 17 18 21 19 18 17 17 16 16 14 11 10 9 8 8 8 8 10 9 10 10 12 11
29 29 27 25 24 23 22 22 21 20 20 18 16 14 14 13 14 15 16 17 19 20 19 18 17 17 17 15 14 12 9 10 9 9 9 8 9 9 11 11 12 11
30 29 28 26 24 23 22 21 21 20 19 18 16 15 15 14 15 15 16 17 19 19 18 18 18 18 16 16 14 12 10 10 10 9 9 9 11 11 11 12 12 12
30 29 29 27 25 23 22 21 20 19 19 17 16 16 15 16 16 16 17 19 18 18 18 17 17 17 16 16 15 13 11 10 10 10 11 12 11 11 11 11 11 11
29 29 29 28 27 24 22 21 20 19 18 18 17 17 19 17 18 17 18 19 18 18 17 16 17 18 17 16 15 14 12 11 13 12 12 12 12 12 13 12 11 11
28 29 29 29 28 27 24 22 21 19 18 18 21 17 17 18 18 18 20 18 18 18 18 18 17 18 18 16 15 14 13 14 14 13 13 13 13 12 13 13 11 11
28 29 29 30 29 28 26 24 22 19 18 17 18 19 18 18 19 18 18 17 17 18 18 18 18 19 18 17 16 15 15 15 14 14 13 13 13 13 13 13 13 12
28 29 29 30 30 29 27 25 23 20 19 18 19 19 20 19 19 18 18 18 18 18 19 19 19 18 18 17 17 17 16 15 14 14 13 13 13 14 14 13 13 13
28 29 29 30 30 30 28 25 23 21 20 19 19 19 20 19 20 19 18 18 18 18 19 19 19 18 18 17 17 17 16 15 15 15 13 13 13 13 14 14 13 12
29 29 30 30 31 31 29 27 25 22 21 20 20 20 20 20 20 19 19 20 19 19 19 19 19 19 19 21 20 17 16 15 14 15 14 14 13 13 13 13 13 12
29 29 30 31 31 32 31 29 26 24 22 21 20 19 20 21 20 19 19 20 19 19 19 19 19 19 22 23 24 23 18 16 15 14 14 14 13 13 13 13 13 12
29 30 31 32 32 32 32 31 29 26 24 22 22 20 20 19 20 20 20 19 20 20 19 19 19 21 23 24 24 24 22 16 15 15 15 14 14 14 13 13 12 12
29 30 31 32 32 32 32 32 30 27 25 23 21 20 19 19 21 20 19 20 20 20 20 19 19 22 24 25 25 25 25 20 16 14 15 15 14 14 13 13 12 11
29 30 31 32 32 32 32 32 30 27 25 24 23 21 20 20 20 20 20 20 20 20 20 20 19 21 24 25 25 25 25 24 15 14 14 14 14 14 13 13 11 10
29 30 31 31 32 32 32 32 31 28 27 25 24 22 21 21 20 20 20 21 20 20 20 19 19 22 24 24 25 25 25 25 19 15 15 14 14 14 13 12 11 10
29 30 30 30 30 31 31 31 31 30 28 27 25 23 22 21 21 21 20 20 20 20 19 19 19 23 24 24 25 25 25 23 22 19 16 15 15 14 12 12 11 11
29 30 30 30 30 30 31 31 31 30 29 27 25 24 22 21 20 19 20 20 20 20 19 19 19 22 24 24 25 25 25 23 22 21 18 17 15 15 13 12 11 11
30 30 29 29 30 30 30 30 30 30 29 28 25 24 22 21 21 20 20 20 19 19 19 18 18 20 23 24 25 25 24 22 22 21 19 17 16 15 14 13 12 15
30 30 29 29 29 30 30 30 30 30 29 27 25 24 23 22 21 20 19 19 19 19 21 19 18 19 22 24 25 25 24 22 21 20 19 17 16 15 15 14 13 16
29 29 29 29 30 30 30 30 30 29 28 26 25 24 23 21 20 20 19 19 18 19 18 19 18 17 19 23 24 25 25 23 21 20 19 18 17 16 15 14 13 13